Location: Mentone
(34.5413°N, 85.5351°W)
Time: 01:30:31
(UTC-05:00)

Transit 2A Rocket - Visible Passes

Search period start: 26 June 2016 00:00
Search period end: 06 July 2016 00:00
Orbit: 584 x 920 km, 66.7° (Epoch: 24 June)

Date Brightness Start Highest point End Pass type
(mag) Time Alt. Az. Time Alt. Az. Time Alt. Az.
26 Jun 5.6 21:39:17 10° NNW 21:45:19 56° ENE 21:47:58 31° SE visible
26 Jun 7.0 23:23:18 10° WNW 23:27:23 19° WSW 23:27:54 19° WSW visible
27 Jun 6.3 20:57:17 10° N 21:02:48 34° NE 21:06:56 15° ESE visible
27 Jun 6.3 22:40:02 10° NW 22:45:23 34° WSW 22:46:52 30° SW visible
28 Jun 5.6 21:57:19 10° NW 22:03:17 60° WSW 22:05:52 32° S visible
29 Jun 5.3 21:14:54 10° NNW 21:21:01 81° ENE 21:24:56 21° SSE visible
29 Jun 7.5 23:00:30 10° WNW 23:02:46 12° W 23:04:52 10° WSW visible
30 Jun 5.8 20:32:43 10° NNW 20:38:36 48° ENE 20:44:03 10° SE visible
30 Jun 7.1 22:16:17 10° NW 22:20:50 23° WSW 22:23:59 15° SW visible
01 Jul 6.3 21:33:13 10° NW 21:38:48 40° WSW 21:43:10 15° S visible
02 Jul 5.5 20:50:37 10° NNW 20:56:39 71° WSW 21:02:16 10° SSE visible
03 Jul 7.6 21:53:02 10° WNW 21:56:14 15° WSW 21:59:19 10° SW visible
04 Jul 7.0 21:09:21 10° NW 21:14:16 27° WSW 21:18:55 10° SSW visible
05 Jul 6.2 20:26:27 10° NW 20:32:12 48° WSW 20:37:34 10° S visible
